Year,Month,Day,Hour,Minute,Value (Times are PST for temperature in C)
2014,09,21,00,00,16.50
2014,09,21,00,01,16.50
2014,09,21,00,02,16.50
2014,09,21,00,03,16.50
2014,09,21,00,04,16.50
2014,09,21,00,05,16.50
2014,09,21,00,06,16.50
2014,09,21,00,07,16.50
2014,09,21,00,08,16.50
2014,09,21,00,09,16.50
2014,09,21,00,10,16.50
2014,09,21,00,11,16.50
2014,09,21,00,12,16.60
2014,09,21,00,13,16.60
2014,09,21,00,14,16.60
2014,09,21,00,15,16.60
2014,09,21,00,16,16.60
2014,09,21,00,17,16.60
2014,09,21,00,18,16.60
2014,09,21,00,19,16.60
2014,09,21,00,20,16.60
2014,09,21,00,21,16.60
2014,09,21,00,22,16.60
2014,09,21,00,23,16.60
2014,09,21,00,24,16.60
2014,09,21,00,25,16.60
2014,09,21,00,26,16.60
2014,09,21,00,27,16.60
2014,09,21,00,28,16.60
2014,09,21,00,29,16.60
2014,09,21,00,30,16.60
2014,09,21,00,31,16.60
2014,09,21,00,32,16.60
2014,09,21,00,33,16.60
2014,09,21,00,34,16.60
2014,09,21,00,35,16.60
2014,09,21,00,36,16.60
2014,09,21,00,37,16.60
2014,09,21,00,38,16.60
2014,09,21,00,39,16.60
2014,09,21,00,40,16.60
2014,09,21,00,41,16.60
2014,09,21,00,42,16.50
2014,09,21,00,43,16.50
2014,09,21,00,44,16.50
2014,09,21,00,45,16.50
2014,09,21,00,46,16.50
2014,09,21,00,47,16.50
2014,09,21,00,48,16.50
2014,09,21,00,49,16.40
2014,09,21,00,50,16.40
2014,09,21,00,51,16.40
2014,09,21,00,52,16.50
2014,09,21,00,53,16.50
2014,09,21,00,54,16.50
2014,09,21,00,55,16.50
2014,09,21,00,56,16.50
2014,09,21,00,57,16.50
2014,09,21,00,58,16.50
2014,09,21,00,59,16.50
2014,09,21,01,00,16.50
2014,09,21,01,01,16.60
2014,09,21,01,02,16.60
2014,09,21,01,03,16.60
2014,09,21,01,04,16.60
2014,09,21,01,05,16.50
2014,09,21,01,06,16.50
2014,09,21,01,07,16.50
2014,09,21,01,08,16.50
2014,09,21,01,09,16.50
2014,09,21,01,10,16.60
2014,09,21,01,11,16.60
2014,09,21,01,12,16.60
2014,09,21,01,13,16.60
2014,09,21,01,14,16.60
2014,09,21,01,15,16.60
2014,09,21,01,16,16.60
2014,09,21,01,17,16.60
2014,09,21,01,18,16.60
2014,09,21,01,19,16.60
2014,09,21,01,20,16.60
2014,09,21,01,21,16.60
2014,09,21,01,22,16.60
2014,09,21,01,23,16.70
2014,09,21,01,24,16.70
2014,09,21,01,25,16.70
2014,09,21,01,26,16.70
2014,09,21,01,27,16.70
2014,09,21,01,28,16.70
2014,09,21,01,29,16.70
2014,09,21,01,30,16.80
2014,09,21,01,31,16.80
2014,09,21,01,32,16.80
2014,09,21,01,33,16.80
2014,09,21,01,34,16.90
2014,09,21,01,35,16.90
2014,09,21,01,36,16.90
2014,09,21,01,37,16.90
2014,09,21,01,38,16.90
2014,09,21,01,39,17.00
2014,09,21,01,40,17.00
2014,09,21,01,41,17.10
2014,09,21,01,42,17.10
2014,09,21,01,43,17.10
2014,09,21,01,44,17.10
2014,09,21,01,45,17.10
2014,09,21,01,46,17.10
2014,09,21,01,47,17.10
2014,09,21,01,48,17.00
2014,09,21,01,49,17.00
2014,09,21,01,50,17.00
2014,09,21,01,51,17.00
2014,09,21,01,52,17.00
2014,09,21,01,53,16.90
2014,09,21,01,54,16.90
2014,09,21,01,55,16.90
2014,09,21,01,56,16.90
2014,09,21,01,57,16.90
2014,09,21,01,58,16.90
2014,09,21,01,59,16.90
2014,09,21,02,00,16.80
2014,09,21,02,01,16.80
2014,09,21,02,02,16.80
2014,09,21,02,03,16.80
2014,09,21,02,04,16.80
2014,09,21,02,05,16.80
2014,09,21,02,06,16.80
2014,09,21,02,07,16.80
2014,09,21,02,08,16.80
2014,09,21,02,09,16.80
2014,09,21,02,10,16.80
2014,09,21,02,11,16.80
2014,09,21,02,12,16.70
2014,09,21,02,13,16.70
2014,09,21,02,14,16.70
2014,09,21,02,15,16.70
2014,09,21,02,16,16.70
2014,09,21,02,17,16.70
2014,09,21,02,18,16.70
2014,09,21,02,19,16.70
2014,09,21,02,20,16.70
2014,09,21,02,21,16.70
2014,09,21,02,22,16.70
2014,09,21,02,23,16.70
2014,09,21,02,24,16.70
2014,09,21,02,25,16.70
2014,09,21,02,26,16.70
2014,09,21,02,27,16.70
2014,09,21,02,28,16.60
2014,09,21,02,29,16.70
2014,09,21,02,30,16.60
2014,09,21,02,31,16.70
2014,09,21,02,32,16.70
2014,09,21,02,33,16.70
2014,09,21,02,34,16.70
2014,09,21,02,35,16.70
2014,09,21,02,36,16.70
2014,09,21,02,37,16.70
2014,09,21,02,38,16.70
2014,09,21,02,39,16.70
2014,09,21,02,40,16.70
2014,09,21,02,41,16.70
2014,09,21,02,42,16.70
2014,09,21,02,43,16.70
2014,09,21,02,44,16.70
2014,09,21,02,45,16.70
2014,09,21,02,46,16.70
2014,09,21,02,47,16.60
2014,09,21,02,48,16.60
2014,09,21,02,49,16.60
2014,09,21,02,50,16.60
2014,09,21,02,51,16.60
2014,09,21,02,52,16.60
2014,09,21,02,53,16.60
2014,09,21,02,54,16.60
2014,09,21,02,55,16.60
2014,09,21,02,56,16.60
2014,09,21,02,57,16.50
2014,09,21,02,58,16.50
2014,09,21,02,59,16.50
2014,09,21,03,00,16.50
2014,09,21,03,01,16.50
2014,09,21,03,02,16.50
2014,09,21,03,03,16.40
2014,09,21,03,04,16.40
2014,09,21,03,05,16.40
2014,09,21,03,06,16.40
2014,09,21,03,07,16.40
2014,09,21,03,08,16.40
2014,09,21,03,09,16.40
2014,09,21,03,10,16.40
2014,09,21,03,11,16.40
2014,09,21,03,12,16.40
2014,09,21,03,13,16.30
2014,09,21,03,14,16.30
2014,09,21,03,15,16.30
2014,09,21,03,16,16.30
2014,09,21,03,17,16.30
2014,09,21,03,18,16.40
2014,09,21,03,19,16.40
2014,09,21,03,20,16.40
2014,09,21,03,21,16.40
2014,09,21,03,22,16.40
2014,09,21,03,23,16.40
2014,09,21,03,24,16.40
2014,09,21,03,25,16.40
2014,09,21,03,26,16.40
2014,09,21,03,27,16.40
2014,09,21,03,28,16.30
2014,09,21,03,29,16.30
2014,09,21,03,30,16.30
2014,09,21,03,31,16.30
2014,09,21,03,32,16.30
2014,09,21,03,33,16.30
2014,09,21,03,34,16.20
2014,09,21,03,35,16.20
2014,09,21,03,36,16.20
2014,09,21,03,37,16.20
2014,09,21,03,38,16.10
2014,09,21,03,39,16.10
2014,09,21,03,40,16.10
2014,09,21,03,41,16.10
2014,09,21,03,42,16.00
2014,09,21,03,43,16.00
2014,09,21,03,44,16.00
2014,09,21,03,45,16.00
2014,09,21,03,46,15.90
2014,09,21,03,47,15.90
2014,09,21,03,48,15.90
2014,09,21,03,49,15.90
2014,09,21,03,50,15.90
2014,09,21,03,51,15.90
2014,09,21,03,52,15.90
2014,09,21,03,53,16.00
2014,09,21,03,54,16.00
2014,09,21,03,55,16.00
2014,09,21,03,56,16.00
2014,09,21,03,57,16.00
2014,09,21,03,58,16.00
2014,09,21,03,59,16.00
2014,09,21,04,00,16.00
2014,09,21,04,01,16.00
2014,09,21,04,02,16.00
2014,09,21,04,03,16.00
2014,09,21,04,04,16.00
2014,09,21,04,05,16.00
2014,09,21,04,06,16.00
2014,09,21,04,07,16.00
2014,09,21,04,08,16.00
2014,09,21,04,09,16.00
2014,09,21,04,10,16.00
2014,09,21,04,11,16.00
2014,09,21,04,12,15.90
2014,09,21,04,13,15.90
2014,09,21,04,14,15.90
2014,09,21,04,15,15.90
2014,09,21,04,16,15.80
2014,09,21,04,17,15.80
2014,09,21,04,18,15.80
2014,09,21,04,19,15.80
2014,09,21,04,20,15.80
2014,09,21,04,21,15.80
2014,09,21,04,22,15.80
2014,09,21,04,23,15.80
2014,09,21,04,24,15.80
2014,09,21,04,25,15.80
2014,09,21,04,26,15.80
2014,09,21,04,27,15.80
2014,09,21,04,28,15.80
2014,09,21,04,29,15.90
2014,09,21,04,30,15.90
2014,09,21,04,31,15.90
2014,09,21,04,32,15.90
2014,09,21,04,33,15.90
2014,09,21,04,34,15.90
2014,09,21,04,35,15.90
2014,09,21,04,36,15.90
2014,09,21,04,37,15.90
2014,09,21,04,38,15.90
2014,09,21,04,39,15.90
2014,09,21,04,40,15.90
2014,09,21,04,41,15.90
2014,09,21,04,42,15.90
2014,09,21,04,43,15.90
2014,09,21,04,44,15.90
2014,09,21,04,45,15.90
2014,09,21,04,46,15.90
2014,09,21,04,47,15.90
2014,09,21,04,48,15.90
2014,09,21,04,49,15.90
2014,09,21,04,50,15.90
2014,09,21,04,51,15.90
2014,09,21,04,52,15.90
2014,09,21,04,53,15.80
2014,09,21,04,54,15.90
2014,09,21,04,55,15.80
2014,09,21,04,56,15.80
2014,09,21,04,57,15.80
2014,09,21,04,58,15.80
2014,09,21,04,59,15.80
2014,09,21,05,00,15.80
2014,09,21,05,01,15.80
2014,09,21,05,02,15.90
2014,09,21,05,03,15.90
2014,09,21,05,04,15.90
2014,09,21,05,05,15.90
2014,09,21,05,06,15.90
2014,09,21,05,07,15.80
2014,09,21,05,08,15.80
2014,09,21,05,09,15.80
2014,09,21,05,10,15.80
2014,09,21,05,11,15.80
2014,09,21,05,12,15.80
2014,09,21,05,13,15.80
2014,09,21,05,14,15.80
2014,09,21,05,15,15.80
2014,09,21,05,16,15.80
2014,09,21,05,17,15.80
2014,09,21,05,18,15.80
2014,09,21,05,19,15.80
2014,09,21,05,20,15.80
2014,09,21,05,21,15.80
2014,09,21,05,22,15.80
2014,09,21,05,23,15.80
2014,09,21,05,24,15.80
2014,09,21,05,25,15.80
2014,09,21,05,26,15.80
2014,09,21,05,27,15.80
2014,09,21,05,28,15.80
2014,09,21,05,29,15.70
2014,09,21,05,30,15.70
2014,09,21,05,31,15.70
2014,09,21,05,32,15.70
2014,09,21,05,33,15.60
2014,09,21,05,34,15.60
2014,09,21,05,35,15.60
2014,09,21,05,36,15.60
2014,09,21,05,37,15.60
2014,09,21,05,38,15.60
2014,09,21,05,39,15.60
2014,09,21,05,40,15.60
2014,09,21,05,41,15.60
2014,09,21,05,42,15.50
2014,09,21,05,43,15.50
2014,09,21,05,44,15.50
2014,09,21,05,45,15.40
2014,09,21,05,46,15.40
2014,09,21,05,47,15.40
2014,09,21,05,48,15.40
2014,09,21,05,49,15.30
2014,09,21,05,50,15.30
2014,09,21,05,51,15.30
2014,09,21,05,52,15.30
2014,09,21,05,53,15.30
2014,09,21,05,54,15.30
2014,09,21,05,55,15.30
2014,09,21,05,56,15.30
2014,09,21,05,57,15.30
2014,09,21,05,58,15.20
2014,09,21,05,59,15.20
2014,09,21,06,00,15.20
2014,09,21,06,01,15.20
2014,09,21,06,02,15.20
2014,09,21,06,03,15.20
2014,09,21,06,04,15.20
2014,09,21,06,05,15.20
2014,09,21,06,06,15.20
2014,09,21,06,07,15.20
2014,09,21,06,08,15.20
2014,09,21,06,09,15.20
2014,09,21,06,10,15.10
2014,09,21,06,11,15.10
2014,09,21,06,12,15.10
2014,09,21,06,13,15.10
2014,09,21,06,14,15.00
2014,09,21,06,15,15.00
2014,09,21,06,16,15.00
2014,09,21,06,17,15.00
2014,09,21,06,18,15.00
2014,09,21,06,19,15.00
2014,09,21,06,20,15.00
2014,09,21,06,21,15.00
2014,09,21,06,22,15.00
2014,09,21,06,23,15.00
2014,09,21,06,24,15.00
2014,09,21,06,25,15.00
2014,09,21,06,26,15.00
2014,09,21,06,27,15.00
2014,09,21,06,28,15.00
2014,09,21,06,29,15.00
2014,09,21,06,30,15.00
2014,09,21,06,31,15.00
2014,09,21,06,32,15.00
2014,09,21,06,33,15.00
2014,09,21,06,34,15.00
2014,09,21,06,35,15.00
2014,09,21,06,36,15.00
2014,09,21,06,37,15.00
2014,09,21,06,38,14.90
2014,09,21,06,39,14.90
2014,09,21,06,40,14.90
2014,09,21,06,41,14.90
2014,09,21,06,42,14.90
2014,09,21,06,43,14.90
2014,09,21,06,44,14.80
2014,09,21,06,45,14.80
2014,09,21,06,46,14.80
2014,09,21,06,47,14.80
2014,09,21,06,48,14.80
2014,09,21,06,49,14.80
2014,09,21,06,50,14.80
2014,09,21,06,51,14.80
2014,09,21,06,52,14.80
2014,09,21,06,53,14.70
2014,09,21,06,54,14.80
2014,09,21,06,55,14.80
2014,09,21,06,56,14.80
2014,09,21,06,57,14.80
2014,09,21,06,58,14.80
2014,09,21,06,59,14.80
2014,09,21,07,00,14.80
2014,09,21,07,01,14.90
2014,09,21,07,02,14.90
2014,09,21,07,03,14.90
2014,09,21,07,04,15.00
2014,09,21,07,05,15.00
2014,09,21,07,06,15.00
2014,09,21,07,07,15.00
2014,09,21,07,08,15.00
2014,09,21,07,09,15.00
2014,09,21,07,10,15.00
2014,09,21,07,11,15.00
2014,09,21,07,12,15.00
2014,09,21,07,13,15.00
2014,09,21,07,14,15.00
2014,09,21,07,15,15.00
2014,09,21,07,16,15.00
2014,09,21,07,17,15.00
2014,09,21,07,18,15.00
2014,09,21,07,19,15.00
2014,09,21,07,20,15.00
2014,09,21,07,21,15.00
2014,09,21,07,22,14.90
2014,09,21,07,23,14.90
2014,09,21,07,24,14.80
2014,09,21,07,25,14.80
2014,09,21,07,26,14.80
2014,09,21,07,27,14.80
2014,09,21,07,28,14.80
2014,09,21,07,29,14.80
2014,09,21,07,30,14.80
2014,09,21,07,31,14.80
2014,09,21,07,32,14.80
2014,09,21,07,33,14.80
2014,09,21,07,34,14.80
2014,09,21,07,35,14.80
2014,09,21,07,36,14.90
2014,09,21,07,37,14.90
2014,09,21,07,38,14.90
2014,09,21,07,39,14.90
2014,09,21,07,40,15.00
2014,09,21,07,41,15.00
2014,09,21,07,42,15.00
2014,09,21,07,43,15.00
2014,09,21,07,44,15.00
2014,09,21,07,45,15.00
2014,09,21,07,46,15.00
2014,09,21,07,47,15.00
2014,09,21,07,48,15.00
2014,09,21,07,49,15.20
2014,09,21,07,50,15.20
2014,09,21,07,51,15.30
2014,09,21,07,52,15.30
2014,09,21,07,53,15.40
2014,09,21,07,54,15.40
2014,09,21,07,55,15.40
2014,09,21,07,56,15.40
2014,09,21,07,57,15.50
2014,09,21,07,58,15.50
2014,09,21,07,59,15.60
2014,09,21,08,00,15.60
2014,09,21,08,01,15.60
2014,09,21,08,02,15.70
2014,09,21,08,03,15.70
2014,09,21,08,04,15.80
2014,09,21,08,05,15.80
2014,09,21,08,06,15.90
2014,09,21,08,07,15.90
2014,09,21,08,08,16.00
2014,09,21,08,09,16.10
2014,09,21,08,10,16.10
2014,09,21,08,11,16.20
2014,09,21,08,12,16.20
2014,09,21,08,13,16.30
2014,09,21,08,14,16.30
2014,09,21,08,15,16.30
2014,09,21,08,16,16.30
2014,09,21,08,17,16.40
2014,09,21,08,18,16.40
2014,09,21,08,19,16.40
2014,09,21,08,20,16.40
2014,09,21,08,21,16.50
2014,09,21,08,22,16.50
2014,09,21,08,23,16.60
2014,09,21,08,24,16.60
2014,09,21,08,25,16.60
2014,09,21,08,26,16.70
2014,09,21,08,27,16.70
2014,09,21,08,28,16.70
2014,09,21,08,29,16.80
2014,09,21,08,30,16.90
2014,09,21,08,31,17.00
2014,09,21,08,32,17.00
2014,09,21,08,33,17.10
2014,09,21,08,34,17.20
2014,09,21,08,35,17.30
2014,09,21,08,36,17.30
2014,09,21,08,37,17.40
2014,09,21,08,38,17.50
2014,09,21,08,39,17.60
2014,09,21,08,40,17.60
2014,09,21,08,41,17.70
2014,09,21,08,42,17.80
2014,09,21,08,43,17.90
2014,09,21,08,44,18.00
2014,09,21,08,45,18.10
2014,09,21,08,46,18.20
2014,09,21,08,47,18.40
2014,09,21,08,48,18.50
2014,09,21,08,49,18.60
2014,09,21,08,50,18.70
2014,09,21,08,51,18.90
2014,09,21,08,52,19.00
2014,09,21,08,53,19.10
2014,09,21,08,54,19.20
2014,09,21,08,55,19.30
2014,09,21,08,56,19.40
2014,09,21,08,57,19.50
2014,09,21,08,58,19.60
2014,09,21,08,59,19.70
2014,09,21,09,00,19.70
2014,09,21,09,01,19.80
2014,09,21,09,02,19.80
2014,09,21,09,03,19.90
2014,09,21,09,04,19.90
2014,09,21,09,05,20.00
2014,09,21,09,06,20.10
2014,09,21,09,07,20.10
2014,09,21,09,08,20.20
2014,09,21,09,09,20.30
2014,09,21,09,10,20.40
2014,09,21,09,11,20.40
2014,09,21,09,12,20.40
2014,09,21,09,13,20.40
2014,09,21,09,14,20.40
2014,09,21,09,15,20.30
2014,09,21,09,16,20.30
2014,09,21,09,17,20.20
2014,09,21,09,18,20.00
2014,09,21,09,19,20.00
2014,09,21,09,20,19.90
2014,09,21,09,21,19.90
2014,09,21,09,22,19.90
2014,09,21,09,23,19.90
2014,09,21,09,24,19.90
2014,09,21,09,25,20.00
2014,09,21,09,26,20.00
2014,09,21,09,27,20.00
2014,09,21,09,28,20.10
2014,09,21,09,29,20.10
2014,09,21,09,30,20.10
2014,09,21,09,31,20.10
2014,09,21,09,32,20.20
2014,09,21,09,33,20.20
2014,09,21,09,34,20.10
2014,09,21,09,35,20.10
2014,09,21,09,36,20.10
2014,09,21,09,37,20.10
2014,09,21,09,38,20.10
2014,09,21,09,39,20.20
2014,09,21,09,40,20.20
2014,09,21,09,41,20.20
2014,09,21,09,42,20.20
2014,09,21,09,43,20.30
2014,09,21,09,44,20.30
2014,09,21,09,45,20.30
2014,09,21,09,46,20.30
2014,09,21,09,47,20.20
2014,09,21,09,48,20.20
2014,09,21,09,49,20.20
2014,09,21,09,50,20.30
2014,09,21,09,51,20.30
2014,09,21,09,52,20.30
2014,09,21,09,53,20.30
2014,09,21,09,54,20.30
2014,09,21,09,55,20.30
2014,09,21,09,56,20.30
2014,09,21,09,57,20.40
2014,09,21,09,58,20.40
2014,09,21,09,59,20.40
2014,09,21,10,00,20.40
2014,09,21,10,01,20.40
2014,09,21,10,02,20.40
2014,09,21,10,03,20.50
2014,09,21,10,04,20.50
2014,09,21,10,05,20.50
2014,09,21,10,06,20.60
2014,09,21,10,07,20.60
2014,09,21,10,08,20.60
2014,09,21,10,09,20.70
2014,09,21,10,10,20.70
2014,09,21,10,11,20.70
2014,09,21,10,12,20.80
2014,09,21,10,13,20.80
2014,09,21,10,14,20.80
2014,09,21,10,15,20.90
2014,09,21,10,16,20.90
2014,09,21,10,17,20.90
2014,09,21,10,18,20.90
2014,09,21,10,19,21.00
2014,09,21,10,20,21.00
2014,09,21,10,21,21.10
2014,09,21,10,22,21.10
2014,09,21,10,23,21.10
2014,09,21,10,24,21.10
2014,09,21,10,25,21.00
2014,09,21,10,26,21.00
2014,09,21,10,27,21.00
2014,09,21,10,28,21.10
2014,09,21,10,29,21.10
2014,09,21,10,30,21.10
2014,09,21,10,31,21.10
2014,09,21,10,32,21.10
2014,09,21,10,33,21.10
2014,09,21,10,34,21.10
2014,09,21,10,35,21.20
2014,09,21,10,36,21.20
2014,09,21,10,37,21.30
2014,09,21,10,38,21.30
2014,09,21,10,39,21.30
2014,09,21,10,40,21.40
2014,09,21,10,41,21.40
2014,09,21,10,42,21.50
2014,09,21,10,43,21.60
2014,09,21,10,44,21.60
2014,09,21,10,45,21.60
2014,09,21,10,46,21.70
2014,09,21,10,47,21.70
2014,09,21,10,48,21.70
2014,09,21,10,49,21.60
2014,09,21,10,50,21.60
2014,09,21,10,51,21.70
2014,09,21,10,52,21.70
2014,09,21,10,53,21.70
2014,09,21,10,54,21.70
2014,09,21,10,55,21.70
2014,09,21,10,56,21.80
2014,09,21,10,57,21.80
2014,09,21,10,58,21.90
2014,09,21,10,59,22.00
2014,09,21,11,00,22.00
2014,09,21,11,01,22.00
2014,09,21,11,02,22.00
2014,09,21,11,03,21.90
2014,09,21,11,04,21.80
2014,09,21,11,05,21.80
2014,09,21,11,06,21.80
2014,09,21,11,07,21.80
2014,09,21,11,08,21.70
2014,09,21,11,09,21.70
2014,09,21,11,10,21.80
2014,09,21,11,11,21.80
2014,09,21,11,12,21.90
2014,09,21,11,13,22.00
2014,09,21,11,14,22.10
2014,09,21,11,15,22.10
2014,09,21,11,16,22.20
2014,09,21,11,17,22.30
2014,09,21,11,18,22.30
2014,09,21,11,19,22.40
2014,09,21,11,20,22.40
2014,09,21,11,21,22.40
2014,09,21,11,22,22.50
2014,09,21,11,23,22.50
2014,09,21,11,24,22.50
2014,09,21,11,25,22.50
2014,09,21,11,26,22.50
2014,09,21,11,27,22.60
2014,09,21,11,28,22.60
2014,09,21,11,29,22.60
2014,09,21,11,30,22.60
2014,09,21,11,31,22.60
2014,09,21,11,32,22.60
2014,09,21,11,33,22.60
2014,09,21,11,34,22.70
2014,09,21,11,35,22.70
2014,09,21,11,36,22.80
2014,09,21,11,37,22.80
2014,09,21,11,38,22.90
2014,09,21,11,39,22.90
2014,09,21,11,40,22.90
2014,09,21,11,41,22.90
2014,09,21,11,42,22.90
2014,09,21,11,43,22.90
2014,09,21,11,44,22.90
2014,09,21,11,45,22.90
2014,09,21,11,46,22.90
2014,09,21,11,47,22.90
2014,09,21,11,48,22.90
2014,09,21,11,49,22.90
2014,09,21,11,50,22.90
2014,09,21,11,51,22.90
2014,09,21,11,52,22.90
2014,09,21,11,53,22.90
2014,09,21,11,54,22.90
2014,09,21,11,55,22.90
2014,09,21,11,56,23.00
2014,09,21,11,57,23.00
2014,09,21,11,58,23.10
2014,09,21,11,59,23.20
2014,09,21,12,00,23.20
2014,09,21,12,01,23.20
2014,09,21,12,02,23.20
2014,09,21,12,03,23.20
2014,09,21,12,04,23.20
2014,09,21,12,05,23.20
2014,09,21,12,06,23.30
2014,09,21,12,07,23.30
2014,09,21,12,08,23.40
2014,09,21,12,09,23.50
2014,09,21,12,10,23.50
2014,09,21,12,11,23.60
2014,09,21,12,12,23.60
2014,09,21,12,13,23.70
2014,09,21,12,14,23.70
2014,09,21,12,15,23.70
2014,09,21,12,16,23.80
2014,09,21,12,17,23.80
2014,09,21,12,18,23.80
2014,09,21,12,19,23.80
2014,09,21,12,20,23.80
2014,09,21,12,21,23.70
2014,09,21,12,22,23.70
2014,09,21,12,23,23.70
2014,09,21,12,24,23.60
2014,09,21,12,25,23.60
2014,09,21,12,26,23.60
2014,09,21,12,27,23.60
2014,09,21,12,28,23.50
2014,09,21,12,29,23.50
2014,09,21,12,30,23.40
2014,09,21,12,31,23.40
2014,09,21,12,32,23.40
2014,09,21,12,33,23.40
2014,09,21,12,34,23.40
2014,09,21,12,35,23.40
2014,09,21,12,36,23.40
2014,09,21,12,37,23.40
2014,09,21,12,38,23.40
2014,09,21,12,39,23.20
2014,09,21,12,40,23.10
2014,09,21,12,41,23.10
2014,09,21,12,42,23.10
2014,09,21,12,43,23.10
2014,09,21,12,44,23.10
2014,09,21,12,45,23.10
2014,09,21,12,46,23.20
2014,09,21,12,47,23.20
2014,09,21,12,48,23.20
2014,09,21,12,49,23.20
2014,09,21,12,50,23.20
2014,09,21,12,51,23.30
2014,09,21,12,52,23.30
2014,09,21,12,53,23.40
2014,09,21,12,54,23.40
2014,09,21,12,55,23.40
2014,09,21,12,56,23.50
2014,09,21,12,57,23.60
2014,09,21,12,58,23.60
2014,09,21,12,59,23.60
2014,09,21,13,00,23.60
2014,09,21,13,01,23.60
2014,09,21,13,02,23.60
2014,09,21,13,03,23.60
2014,09,21,13,04,23.60
2014,09,21,13,05,23.60
2014,09,21,13,06,23.50
2014,09,21,13,07,23.40
2014,09,21,13,08,23.40
2014,09,21,13,09,23.30
2014,09,21,13,10,23.30
2014,09,21,13,11,23.30
2014,09,21,13,12,23.30
2014,09,21,13,13,23.30
2014,09,21,13,14,23.30
2014,09,21,13,15,23.40
2014,09,21,13,16,23.40
2014,09,21,13,17,23.40
2014,09,21,13,18,23.40
2014,09,21,13,19,23.40
2014,09,21,13,20,23.40
2014,09,21,13,21,23.40
2014,09,21,13,22,23.50
2014,09,21,13,23,23.60
2014,09,21,13,24,23.60
2014,09,21,13,25,23.60
2014,09,21,13,26,23.70
2014,09,21,13,27,23.70
2014,09,21,13,28,23.80
2014,09,21,13,29,23.80
2014,09,21,13,30,23.80
2014,09,21,13,31,23.70
2014,09,21,13,32,23.70
2014,09,21,13,33,23.70
2014,09,21,13,34,23.70
2014,09,21,13,35,23.70
2014,09,21,13,36,23.60
2014,09,21,13,37,23.60
2014,09,21,13,38,23.50
2014,09,21,13,39,23.50
2014,09,21,13,40,23.60
2014,09,21,13,41,23.60
2014,09,21,13,42,23.70
2014,09,21,13,43,23.70
2014,09,21,13,44,23.80
2014,09,21,13,45,23.80
2014,09,21,13,46,23.80
2014,09,21,13,47,23.80
2014,09,21,13,48,23.80
2014,09,21,13,49,23.80
2014,09,21,13,50,23.80
2014,09,21,13,51,23.80
2014,09,21,13,52,23.80
2014,09,21,13,53,23.90
2014,09,21,13,54,23.90
2014,09,21,13,55,23.90
2014,09,21,13,56,23.90
2014,09,21,13,57,23.90
2014,09,21,13,58,23.90
2014,09,21,13,59,24.00
2014,09,21,14,00,24.00
2014,09,21,14,01,24.00
2014,09,21,14,02,24.00
2014,09,21,14,03,24.00
2014,09,21,14,04,24.10
2014,09,21,14,05,24.10
2014,09,21,14,06,24.10
2014,09,21,14,07,24.10
2014,09,21,14,08,24.20
2014,09,21,14,09,24.20
2014,09,21,14,10,24.20
2014,09,21,14,11,24.20
2014,09,21,14,12,24.20
2014,09,21,14,13,24.20
2014,09,21,14,14,24.30
2014,09,21,14,15,24.30
2014,09,21,14,16,24.30
2014,09,21,14,17,24.30
2014,09,21,14,18,24.40
2014,09,21,14,19,24.40
2014,09,21,14,20,24.40
2014,09,21,14,21,24.40
2014,09,21,14,22,24.30
2014,09,21,14,23,24.30
2014,09,21,14,24,24.30
2014,09,21,14,25,24.30
2014,09,21,14,26,24.30
2014,09,21,14,27,24.30
2014,09,21,14,28,24.30
2014,09,21,14,29,24.20
2014,09,21,14,30,24.20
2014,09,21,14,31,24.20
2014,09,21,14,32,24.10
2014,09,21,14,33,24.10
2014,09,21,14,34,23.90
2014,09,21,14,35,23.80
2014,09,21,14,36,23.70
2014,09,21,14,37,23.70
2014,09,21,14,38,23.70
2014,09,21,14,39,23.80
2014,09,21,14,40,23.80
2014,09,21,14,41,23.90
2014,09,21,14,42,23.90
2014,09,21,14,43,23.90
2014,09,21,14,44,24.00
2014,09,21,14,45,24.00
2014,09,21,14,46,24.00
2014,09,21,14,47,24.10
2014,09,21,14,48,24.00
2014,09,21,14,49,24.00
2014,09,21,14,50,23.90
2014,09,21,14,51,23.80
2014,09,21,14,52,23.70
2014,09,21,14,53,23.70
2014,09,21,14,54,23.70
2014,09,21,14,55,23.70
2014,09,21,14,56,23.60
2014,09,21,14,57,23.60
2014,09,21,14,58,23.60
2014,09,21,14,59,23.70
2014,09,21,15,00,23.80
2014,09,21,15,01,23.90
2014,09,21,15,02,23.90
2014,09,21,15,03,23.90
2014,09,21,15,04,23.90
2014,09,21,15,05,23.80
2014,09,21,15,06,23.80
2014,09,21,15,07,23.80
2014,09,21,15,08,23.70
2014,09,21,15,09,23.70
2014,09,21,15,10,23.60
2014,09,21,15,11,23.60
2014,09,21,15,12,23.50
2014,09,21,15,13,23.50
2014,09,21,15,14,23.50
2014,09,21,15,15,23.50
2014,09,21,15,16,23.60
2014,09,21,15,17,23.50
2014,09,21,15,18,23.50
2014,09,21,15,19,23.50
2014,09,21,15,20,23.60
2014,09,21,15,21,23.70
2014,09,21,15,22,23.80
2014,09,21,15,23,23.80
2014,09,21,15,24,23.90
2014,09,21,15,25,24.00
2014,09,21,15,26,24.10
2014,09,21,15,27,24.20
2014,09,21,15,28,24.20
2014,09,21,15,29,24.30
2014,09,21,15,30,24.30
2014,09,21,15,31,24.30
2014,09,21,15,32,24.30
2014,09,21,15,33,24.40
2014,09,21,15,34,24.50
2014,09,21,15,35,24.60
2014,09,21,15,36,24.70
2014,09,21,15,37,24.90
2014,09,21,15,38,25.00
2014,09,21,15,39,25.00
2014,09,21,15,40,24.90
2014,09,21,15,41,25.00
2014,09,21,15,42,25.10
2014,09,21,15,43,25.20
2014,09,21,15,44,25.20
2014,09,21,15,45,25.20
2014,09,21,15,46,25.30
2014,09,21,15,47,25.30
2014,09,21,15,48,25.30
2014,09,21,15,49,25.30
2014,09,21,15,50,25.30
2014,09,21,15,51,25.30
2014,09,21,15,52,25.20
2014,09,21,15,53,25.20
2014,09,21,15,54,25.20
2014,09,21,15,55,25.20
2014,09,21,15,56,25.20
2014,09,21,15,57,25.20
2014,09,21,15,58,25.10
2014,09,21,15,59,24.90
2014,09,21,16,00,24.70
2014,09,21,16,01,24.70
2014,09,21,16,02,24.60
2014,09,21,16,03,24.50
2014,09,21,16,04,24.50
2014,09,21,16,05,24.50
2014,09,21,16,06,24.40
2014,09,21,16,07,24.40
2014,09,21,16,08,24.20
2014,09,21,16,09,24.10
2014,09,21,16,10,24.00
2014,09,21,16,11,24.00
2014,09,21,16,12,23.90
2014,09,21,16,13,23.90
2014,09,21,16,14,23.80
2014,09,21,16,15,23.80
2014,09,21,16,16,23.80
2014,09,21,16,17,23.80
2014,09,21,16,18,23.80
2014,09,21,16,19,23.80
2014,09,21,16,20,23.80
2014,09,21,16,21,23.70
2014,09,21,16,22,23.70
2014,09,21,16,23,23.70
2014,09,21,16,24,23.60
2014,09,21,16,25,23.60
2014,09,21,16,26,23.50
2014,09,21,16,27,23.40
2014,09,21,16,28,23.40
2014,09,21,16,29,23.40
2014,09,21,16,30,23.40
2014,09,21,16,31,23.40
2014,09,21,16,32,23.30
2014,09,21,16,33,23.30
2014,09,21,16,34,23.20
2014,09,21,16,35,23.20
2014,09,21,16,36,23.20
2014,09,21,16,37,23.20
2014,09,21,16,38,23.30
2014,09,21,16,39,23.30
2014,09,21,16,40,23.30
2014,09,21,16,41,23.40
2014,09,21,16,42,23.50
2014,09,21,16,43,23.60
2014,09,21,16,44,23.60
2014,09,21,16,45,23.70
2014,09,21,16,46,23.70
2014,09,21,16,47,23.70
2014,09,21,16,48,23.80
2014,09,21,16,49,23.80
2014,09,21,16,50,23.80
2014,09,21,16,51,23.90
2014,09,21,16,52,23.90
2014,09,21,16,53,24.00
2014,09,21,16,54,24.10
2014,09,21,16,55,24.10
2014,09,21,16,56,24.10
2014,09,21,16,57,24.10
2014,09,21,16,58,24.20
2014,09,21,16,59,24.20
2014,09,21,17,00,24.30
2014,09,21,17,01,24.30
2014,09,21,17,02,24.30
2014,09,21,17,03,24.30
2014,09,21,17,04,24.30
2014,09,21,17,05,24.30
2014,09,21,17,06,24.20
2014,09,21,17,07,24.20
2014,09,21,17,08,24.20
2014,09,21,17,09,24.20
2014,09,21,17,10,24.20
2014,09,21,17,11,24.20
2014,09,21,17,12,24.20
2014,09,21,17,13,24.20
2014,09,21,17,14,24.10
2014,09,21,17,15,24.10
2014,09,21,17,16,24.10
2014,09,21,17,17,24.00
2014,09,21,17,18,23.90
2014,09,21,17,19,23.90